RH
23 25 25 26 26 26 27 29 29 26 24 22 21 21 22 23 25 27 30 30 36 51 61 56 43 30 25 28 30 30 32 35 36 35 34 32 34 35 36 41 46 55
28 28 29 29 29 29 29 30 31 30 29 26 24 24 25 26 27 28 30 31 34 44 57 66 66 54 36 26 27 29 28 30 31 31 31 31 33 35 38 43 51 62
31 30 29 30 30 29 29 31 32 32 32 30 28 31 31 30 30 32 34 36 40 46 54 62 68 69 55 33 24 28 28 28 29 29 30 31 33 36 39 43 55 72
37 34 30 30 34 38 38 36 35 36 38 36 31 34 38 37 34 37 48 55 57 60 64 65 65 68 60 36 23 26 27 28 28 28 30 31 33 36 39 45 61 81
50 48 43 42 46 52 53 47 44 45 46 45 42 42 45 45 39 40 57 72 75 74 72 66 59 54 44 29 23 25 26 27 28 29 30 31 33 36 39 50 69 89
64 66 65 63 63 65 64 60 60 63 64 68 72 67 57 49 41 39 51 62 63 60 55 45 37 33 28 23 23 24 24 26 27 30 31 31 33 37 42 55 76 94
74 77 78 76 73 71 68 66 68 73 80 90 95 84 64 48 39 33 35 38 36 34 32 27 25 24 23 23 23 23 23 25 28 30 32 33 35 39 45 57 76 94
70 74 76 77 76 72 64 59 58 61 67 80 89 78 55 39 33 28 25 25 25 25 24 24 24 23 23 23 23 23 23 24 27 30 32 34 37 41 45 54 71 90
60 63 65 69 72 73 71 64 58 55 53 57 63 58 40 27 25 24 23 22 21 21 23 23 23 23 23 23 22 22 22 23 27 30 32 35 39 42 45 51 67 89
58 60 62 65 68 71 76 78 72 64 58 53 49 43 33 24 21 20 21 21 20 21 22 22 22 23 22 23 22 22 22 23 27 30 32 36 40 42 44 49 65 88
56 56 56 61 72 75 71 75 80 73 65 61 53 43 34 25 21 19 19 19 19 20 21 21 22 22 22 22 23 23 23 24 27 30 32 37 41 43 44 47 62 88
53 51 47 48 64 80 74 67 71 72 67 63 55 44 35 27 21 18 17 18 19 20 21 21 21 22 23 23 23 24 25 25 27 29 33 38 42 43 43 45 58 84
46 46 46 40 49 73 81 70 64 65 62 58 50 40 32 26 21 18 18 19 20 21 21 22 23 24 24 24 25 25 26 25 26 29 32 37 40 42 44 43 51 76
52 51 51 47 47 61 72 68 62 58 53 49 42 34 29 24 20 19 19 19 20 21 22 23 24 25 25 25 26 26 27 26 26 29 31 34 38 41 43 42 44 63
64 60 56 53 52 54 55 54 52 49 44 39 34 29 26 23 21 20 19 20 21 22 23 24 25 26 26 26 25 26 26 26 27 30 32 33 37 40 41 41 41 48
53 52 50 48 47 45 44 42 41 39 36 32 28 25 23 22 21 21 21 21 22 23 24 26 26 27 26 25 25 25 25 26 28 31 32 33 36 39 40 40 41 42
37 37 38 38 38 37 35 35 33 32 30 27 25 23 23 22 22 22 23 23 24 25 26 27 27 26 26 25 24 24 25 27 29 31 34 35 36 39 40 40 42 43
30 29 29 29 30 29 28 28 27 27 26 25 24 24 24 25 25 25 25 25 26 27 27 27 27 25 25 25 25 25 26 27 30 33 35 36 37 39 41 41 41 43
31 31 30 29 29 28 27 28 27 28 28 26 27 28 28 29 28 27 27 27 27 27 27 27 27 26 26 27 27 26 26 28 32 35 35 36 37 38 40 43 42 42
36 35 33 32 32 32 32 32 31 31 30 30 30 30 31 31 30 29 29 28 28 28 28 29 29 28 29 31 31 30 29 31 33 35 36 36 36 38 41 42 42 42
41 40 38 36 35 34 35 35 34 34 33 33 33 33 33 33 32 33 33 32 31 31 31 32 30 31 32 34 36 35 33 33 34 35 37 36 38 41 42 42 43 44
46 45 43 42 40 39 39 38 38 39 39 39 39 38 39 37 36 36 35 35 36 35 35 35 33 34 35 36 37 37 36 36 35 35 36 37 40 40 41 44 44 43
40 42 43 45 45 44 44 44 44 43 43 44 44 44 44 43 41 40 38 38 38 38 38 39 36 36 37 37 38 38 39 39 37 38 39 39 42 42 42 45 43 41
25 27 29 32 35 37 40 41 42 43 43 44 45 44 45 44 44 43 42 41 41 40 41 40 39 40 39 38 39 39 40 41 40 41 41 41 44 44 41 42 43 43
17 18 18 19 20 22 24 26 28 29 31 31 32 33 34 34 35 37 38 39 41 42 43 42 42 43 41 41 42 40 40 40 38 38 40 42 43 41 38 38 39 41
20 19 18 18 18 17 17 18 19 19 18 18 18 19 20 20 21 22 23 26 29 31 34 36 37 38 38 38 37 37 35 32 31 32 33 33 32 32 31 29 29 37
Wind_Speed
15 13 13 13 12 12 12 12 14 14 14 14 12 10 9 10 11 11 12 13 14 15 17 17 17 17 18 18 19 21 22 23 25 26 28 30 31 33 35 36 37 37
16 15 15 15 14 14 14 15 15 15 15 16 14 12 10 11 13 13 14 15 17 19 20 20 20 20 20 21 21 23 24 25 27 28 30 32 33 35 37 38 40 41
18 17 16 16 15 15 15 16 16 16 16 17 17 15 13 12 14 16 17 18 20 21 22 23 23 22 22 23 24 25 26 27 29 30 32 33 35 37 39 40 42 43
18 18 17 17 16 16 17 17 17 17 18 19 19 18 16 15 15 18 19 20 22 23 24 25 25 25 25 25 25 26 27 29 31 32 33 35 36 38 40 42 44 44
19 19 19 18 18 19 19 19 19 20 20 21 21 22 20 18 17 18 21 22 22 24 25 26 26 27 26 26 27 28 29 30 32 33 35 36 38 40 42 44 44 45
21 21 21 21 21 22 22 21 21 22 23 24 24 24 24 21 19 19 21 22 23 24 26 27 27 28 28 28 29 29 30 31 33 34 36 37 39 41 43 45 45 45
22 23 23 24 24 23 23 22 22 23 24 25 27 27 25 23 21 20 21 23 24 25 26 28 28 29 29 30 30 31 32 32 34 35 37 38 40 41 43 45 46 47
25 25 26 26 26 25 24 23 23 24 24 25 28 28 26 25 23 22 22 25 26 26 28 29 30 31 31 32 32 33 33 33 35 36 37 39 40 42 43 46 47 48
28 28 28 28 29 28 27 27 26 26 26 28 29 29 28 27 25 24 25 27 28 28 29 30 31 32 33 34 34 35 35 35 36 37 38 39 41 42 44 46 48 49
31 31 31 31 31 31 31 30 30 29 30 30 31 31 30 30 28 27 28 29 30 30 31 32 33 34 35 36 37 37 38 37 37 38 39 40 41 43 44 46 47 49
35 34 34 34 33 33 33 33 33 33 32 33 33 33 33 33 31 30 31 32 33 33 33 34 35 36 37 38 39 40 40 39 39 40 40 41 42 44 45 45 47 49
40 39 38 37 36 36 35 35 35 35 35 35 36 36 35 35 34 33 33 34 34 35 36 36 37 38 39 39 40 41 41 40 40 41 42 42 43 45 46 46 47 48
44 42 41 40 39 39 38 38 37 37 37 37 37 38 37 37 36 35 35 36 36 37 38 38 39 40 41 41 41 42 42 42 41 42 42 43 44 46 46 46 47 48
46 44 43 42 41 41 41 40 39 39 39 39 39 39 39 38 37 37 37 38 39 39 40 40 41 42 43 42 42 43 43 43 42 43 44 44 45 46 46 46 46 47
46 45 44 43 43 43 43 42 41 41 42 42 42 41 41 40 39 39 40 41 41 41 41 42 44 45 44 43 43 44 44 43 43 44 45 45 46 47 47 47 46 46
47 46 46 45 45 45 45 44 43 43 44 44 44 44 44 42 41 42 43 43 44 44 44 45 46 47 47 45 44 45 45 44 44 45 46 46 47 49 49 48 48 47
49 48 48 48 48 47 47 46 46 46 46 46 47 47 47 46 45 45 45 45 46 46 46 47 48 49 49 47 47 47 46 45 45 45 46 47 48 50 50 50 49 49
52 51 51 51 51 50 49 48 48 48 49 49 49 49 49 50 49 48 48 48 49 49 49 50 51 51 51 50 49 49 48 47 46 46 47 48 49 51 51 51 51 51
56 55 55 55 55 53 52 51 51 51 52 52 51 51 52 53 53 52 51 51 52 52 52 52 53 54 54 53 52 52 50 48 47 47 48 48 49 51 52 52 52 52
58 59 60 59 58 56 55 55 55 55 56 55 55 55 54 55 56 55 55 55 55 55 54 55 55 56 56 56 55 54 52 50 49 48 49 50 50 52 53 53 53 53
61 62 63 62 61 59 58 58 58 59 59 58 58 57 57 57 58 58 58 58 58 58 58 58 58 58 58 58 58 57 54 52 51 51 51 52 52 54 55 55 55 56
64 64 65 65 64 62 61 61 62 62 62 61 60 59 59 59 59 59 60 60 60 60 60 60 60 61 61 61 61 60 58 55 54 53 54 54 55 57 59 58 58 58
67 67 67 68 67 66 65 65 66 66 65 65 64 62 61 61 61 61 61 61 61 62 62 62 62 63 64 65 65 64 62 60 58 56 56 57 58 60 61 61 61 61
67 68 69 70 70 69 69 69 70 70 69 69 68 67 66 65 65 64 64 63 63 63 64 64 64 65 67 68 68 68 67 65 63 61 59 59 61 63 64 65 65 63
63 64 66 67 69 69 70 71 71 71 72 72 71 71 71 70 69 68 68 68 67 66 66 66 66 68 70 71 71 71 71 70 68 65 63 63 64 65 66 67 66 64
58 59 61 62 63 65 66 67 68 68 70 71 71 71 72 72 72 72 72 72 72 70 69 69 70 71 73 74 74 74 74 74 72 69 67 66 65 67 68 68 67 66
Wind_Direction
240 239 241 244 246 249 255 262 270 277 287 294 302 312 319 322 326 326 324 321 319 321 326 333 337 339 338 337 336 337 337 336 335 335 337 339 340 341 343 343 343 343
245 244 244 247 250 251 254 258 265 272 279 285 292 299 308 314 315 314 315 314 311 311 313 318 323 329 333 333 332 332 333 333 333 333 334 336 338 339 341 341 342 341
246 246 245 246 249 252 255 259 264 270 275 279 284 289 297 304 306 305 305 305 305 305 308 311 314 319 325 328 328 328 330 331 330 330 332 335 337 338 339 341 341 341
248 250 249 249 252 256 260 262 265 269 273 276 279 285 291 296 299 300 300 300 300 301 304 309 312 315 319 323 326 326 327 328 328 328 330 333 336 338 338 340 341 340
252 255 257 258 259 262 264 265 267 270 272 275 278 282 286 290 293 296 297 298 300 301 304 307 311 313 316 320 323 324 324 325 326 326 329 332 335 337 337 339 341 340
255 258 261 263 264 266 267 268 269 270 272 275 276 279 282 286 289 291 294 296 298 301 303 306 310 312 314 317 320 321 322 324 324 325 328 331 334 336 337 338 340 340
257 260 262 264 265 267 269 270 271 271 272 274 274 276 280 283 284 287 290 292 295 298 301 304 308 310 312 315 317 318 320 322 323 324 326 330 333 335 336 338 339 339
259 262 264 266 267 268 270 273 274 274 273 272 273 275 278 280 281 283 285 288 291 295 299 302 305 307 310 312 314 316 317 320 322 323 325 328 331 333 334 337 339 338
259 262 266 268 270 271 272 274 275 276 276 274 274 276 278 281 282 282 283 286 290 294 297 300 303 305 308 310 312 313 315 319 321 323 324 326 329 331 333 336 338 337
259 263 266 269 271 272 272 273 275 277 277 277 277 278 280 282 283 283 284 286 290 294 296 298 301 304 306 308 311 312 315 318 320 322 323 324 327 329 330 335 338 336
259 262 266 269 271 272 272 271 273 275 276 278 279 280 281 282 283 284 285 287 291 293 295 297 300 302 305 308 310 312 314 317 319 320 321 322 325 326 328 333 336 335
260 262 265 268 270 271 271 271 271 273 274 277 279 280 281 282 283 285 286 288 290 292 294 297 299 301 304 307 309 311 313 315 317 319 320 321 322 324 326 331 335 334
261 263 265 267 267 268 270 270 271 272 273 275 277 279 281 282 283 284 285 287 289 290 293 296 298 300 302 305 308 309 311 313 315 316 318 319 320 321 323 328 333 333
262 264 265 266 266 266 268 269 271 272 273 274 275 277 279 280 281 282 283 284 286 289 292 295 296 298 300 304 307 307 308 310 312 313 314 316 317 318 320 325 330 331
261 263 264 265 265 266 267 269 270 272 273 274 275 276 276 277 279 280 281 282 284 287 290 293 294 296 298 302 305 305 306 308 310 311 311 313 314 315 317 321 325 328
260 262 263 264 265 266 268 269 270 271 272 274 274 275 276 276 277 278 280 281 284 287 289 291 292 294 297 300 302 302 304 306 308 309 309 310 311 312 315 318 321 323
260 261 262 263 264 264 266 267 268 270 271 272 273 275 276 277 277 278 280 282 284 286 288 289 291 294 296 298 299 300 302 303 305 306 306 307 309 310 312 316 318 319
261 261 261 262 262 263 264 265 267 268 269 270 272 274 276 277 277 278 280 282 284 286 287 289 291 293 295 296 296 297 298 300 302 303 303 305 306 307 310 313 314 315
262 262 262 263 263 264 265 266 267 268 269 270 271 273 274 276 277 279 280 282 283 285 286 288 290 292 293 293 293 294 295 297 299 300 301 302 304 306 308 310 310 312
261 262 263 263 264 266 267 267 268 269 269 270 271 272 274 276 278 280 281 282 283 284 286 287 288 289 290 291 291 292 293 294 296 297 299 300 302 304 304 305 307 308
260 261 263 263 264 265 266 267 269 269 270 271 272 273 274 275 277 279 280 282 283 284 285 286 286 287 288 289 290 291 291 293 294 295 297 299 300 301 301 302 304 305
260 262 263 264 265 265 266 266 267 268 269 270 271 272 273 274 275 276 278 279 281 282 283 284 285 286 287 287 288 289 290 291 293 294 295 296 297 298 298 299 301 302
262 263 264 265 266 267 267 267 267 268 269 269 270 271 271 272 273 274 275 276 277 279 280 282 283 284 285 285 286 287 289 290 291 292 293 294 294 295 296 298 298 300
263 264 265 266 266 267 267 267 268 269 270 271 272 272 272 272 273 274 274 274 274 275 277 279 280 281 282 283 284 286 287 288 289 290 291 291 292 293 295 296 297 298
265 265 266 266 267 268 268 268 269 270 271 271 272 273 273 273 274 274 274 274 274 274 275 277 278 279 280 281 282 284 285 286 287 288 288 289 290 291 293 294 295 297
268 268 268 268 269 269 270 270 271 272 272 273 273 274 274 275 274 274 274 274 274 274 275 276 277 278 279 280 281 282 283 284 286 287 287 287 288 289 290 291 293 294